Preview of NWS' New Version of Forecast
This preview is not operational and should not be used for support decisions.

Regional Weather Roundup (RWR)

Issued by National Weather Service (NWS)

                            
000
ASCA42 TJSJ 190710
RWRPR 
PUERTO RICO/U.S. VIRGIN ISLANDS HOURLY WEATHER ROUNDUP
NATIONAL WEATHER SERVICE SAN JUAN PR
300 AM AST WED JUN 19 2019

PRZ001>002-007>008-010-190800-
PUERTO RICO
  
CITY           SKY/WX    TMP DP  RH WIND       PRES   REMARKS
SAN JUAN LMM   MOCLDY    81  75  83 E9        30.06S                  
CEIBA          CLOUDY    82  75  78 E8        30.08S                  
$$

VIZ001>002-190800-
U.S. VIRGIN ISLANDS
  
CITY           SKY/WX    TMP DP  RH WIND       PRES   REMARKS
CHARLOTTE AMA  MOCLDY    81  75  83 E9        30.05F                  
CHRISTIANSTED  CLOUDY    81  75  83 NE10      30.05F                  
$$

HOURLY WEATHER ROUNDUP FOR THE NEWS MEDIA
  
CITY           SKY/WX    TMP DP  RH WIND       PRES   REMARKS
ORLANDO        FAIR      77  74  90 SW5       30.00F                  
NEW YORK       CLOUDY    66  66 100 NE3       29.88F                  
NEWARK         CLOUDY    68  67  96 CALM      29.88S FOG              
CHICAGO        FAIR      66  56  70 S5        29.83F                  
HARTFORD       CLOUDY    63  61  93 N5        29.85F                  
BOSTON         CLOUDY    61  59  93 N6        29.88  FOG              
DALLAS         MOCLDY    83  70  64 S9        29.80F                  
PHILADELPHIA   LGT RAIN  70  69  97 W6        29.87                   
LOS ANGELES    CLOUDY    65  58  78 W7        29.99S                  
WASHINGTON DC  CLOUDY    71  69  93 S7        29.87F